Volver al catálogo

FENGYUN 2H

ActivoMeteoGEO
NORAD 43491·PAYLOAD·🇨🇳 China

Lanzado Jun 5, 2018 desde Xichang Satellite Launch Center

Loading…

TLE

ActualizadoSource: Space-Track

Época: Sep 14, 2026, 22:43 UTC

1 43491U 18050A   26257.94722086 -.00000136  00000-0  00000-0 0  9996
2 43491   3.2562  77.9482 0002527 149.4975 186.7919  1.00272152 30333

Sigue FENGYUN 2H en tiempo real con AllMySat

Download on the App Store